[[{"header":{"parameterUnit":"m.s-1","parameterCategory":1,"la1":30.2991,"la2":30.254,"lo1":-89.0895,"lo2":-89.0444,"dy":0.0017,"dx":0.0017,"nx":28,"ny":28,"refTime":"2024-11-24T03:00:00:Z","depth":0,"parameterNumber":2,"parameterNumberName":"U-component_of_WINDS"},"data":[0,0,0,0,0,0,0,0,0,0,0,0,0,0,0,0,0,0,0,0,0,0,0,0,0,0,0,0,0,0,0,0,0,0,0,0,0,0,0,0,0,0,0,0,0,0,0,0,0,0,0,0,0,0,0,0,0,0,1.2995,1.2995,0,1.3072,1.3073,1.3073,1.3121,1.3121,1.3122,1.3122,1.3202,1.3204,1.3206,0,0,0,0,0,0,0,0,0,0,0,0,0,1.289,1.2892,1.2994,1.2995,1.2996,1.3072,1.3073,1.3074,1.3121,1.3121,1.3122,1.3122,1.3201,1.3204,1.3206,0,0,0,0,0,0,0,0,0,0,0,0,0,1.2948,1.2892,1.2994,1.3029,1.3033,1.3071,1.3073,1.3074,1.3121,1.3121,1.3122,1.3122,1.3201,1.3203,1.3206,1.3216,0,0,1.3215,1.3216,0,0,0,0,0,0,0,0,1.2945,1.2952,1.3023,1.3027,1.3031,1.3087,1.3065,1.3122,1.3121,1.3088,1.3122,1.3122,1.3164,1.317,1.3183,1.322,1.3224,1.3215,1.3217,1.3218,1.3219,0,0,0,0,0,0,0,1.2941,1.2949,1.3025,1.3024,1.3029,1.3041,1.305,1.3076,1.3123,1.3091,1.3094,1.3103,1.3166,1.318,1.3185,1.3225,1.3215,1.3218,1.322,1.3221,1.3275,1.3274,0,0,0,0,0,0,1.2931,1.2945,1.3023,1.3027,1.2988,1.3043,1.3053,1.3069,1.3122,1.3131,1.3102,1.3104,1.3175,1.3182,1.3188,1.3204,1.3218,1.3221,1.3223,1.3275,1.3274,1.3274,0,0,0,0,0,0,1.2928,1.2937,1.302,1.2987,1.2999,1.3044,1.3062,1.307,1.3085,1.3131,1.314,1.3108,1.3176,1.3184,1.3209,1.3207,1.3222,1.3225,1.3275,1.3275,1.3274,1.3234,0,0,0,0,0,0,1.2925,1.2936,1.294,1.2987,1.3,1.3038,1.3062,1.3071,1.3089,1.3093,1.3139,1.3147,1.3177,1.3205,1.3212,1.3211,1.3227,1.3276,1.3275,1.3274,1.3236,1.3233,1.323,0,0,0,0,0,1.2921,1.2926,1.294,1.2949,1.3006,1.3038,1.3046,1.3079,1.3089,1.3093,1.3123,1.3146,1.3206,1.3207,1.3215,1.3216,1.3276,1.3275,1.3275,1.3237,1.3233,1.323,0,0,0,0,0,0,1.2878,1.2933,1.2949,1.2969,1.2998,1.3046,1.3052,1.3074,1.3101,1.3104,1.3145,1.3155,1.3175,1.3198,1.3198,1.3229,1.3244,1.3245,1.3213,1.3209,1.3206,1.32,1.3229,0,0,0,0,0,1.287,1.2891,1.2939,1.2952,1.2966,1.3006,1.3022,1.3045,1.3077,1.309,1.3122,1.3153,1.3179,1.3196,1.3222,1.324,1.3251,1.3245,1.3241,1.3239,1.3239,1.325,1.3248,1.3272,1.3272,1.3272,0,0,1.2855,1.2888,1.2899,1.2944,1.2969,1.299,1.3017,1.3038,1.3054,1.3094,1.3119,1.3143,1.3181,1.3202,1.3213,1.3222,1.3235,1.3238,1.3235,1.3237,1.3249,1.3247,1.3245,1.3272,1.3272,1.3272,0,0,1.2839,1.2866,1.2879,1.2905,1.2943,1.297,1.2974,1.3018,1.3036,1.3062,1.3092,1.3112,1.3156,1.3182,1.3201,1.3194,1.3216,1.3202,1.3185,1.3196,1.3194,1.3192,1.3189,1.3188,1.3202,1.3202,1.3202,0,1.2815,1.2848,1.2884,1.2903,1.2922,1.2959,1.2973,1.2996,1.3042,1.3054,1.3063,1.312,1.3148,1.3175,1.3173,1.3188,1.3193,1.3196,1.3191,1.319,1.3189,1.3187,1.3186,1.32,1.32,1.3201,1.3201,0,1.2817,1.284,1.2846,1.2888,1.2908,1.2925,1.2964,1.298,1.3002,1.3028,1.3054,1.3089,1.3123,1.3132,1.3154,1.3163,1.3167,1.3183,1.3199,1.3184,1.3183,1.3182,1.3197,1.3198,1.3199,1.3199,0,0,1.2774,1.2837,1.2838,1.2858,1.2904,1.2922,1.2941,1.2974,1.2987,1.3017,1.3034,1.3071,1.3086,1.3107,1.3132,1.3142,1.3134,1.3157,1.3158,1.3151,1.3146,1.3133,1.3131,1.3149,1.3149,1.3149,1.3143,0,1.2764,1.2799,1.2832,1.2855,1.2876,1.2912,1.2929,1.2959,1.2984,1.3006,1.3035,1.306,1.3078,1.3091,1.3102,1.3133,1.3134,1.3134,1.3165,1.3166,1.3154,1.3131,1.3117,1.3109,1.3143,1.3143,1.3143,0,1.2756,1.2784,1.2809,1.2853,1.2863,1.2877,1.2911,1.2932,1.2967,1.2985,1.3008,1.3035,1.3057,1.3071,1.3103,1.3102,1.3117,1.3134,1.3135,1.3138,1.3152,1.3133,1.3108,1.3106,1.3142,1.3142,1.3142,0,1.2721,1.2766,1.2787,1.2803,1.2855,1.2864,1.2886,1.2921,1.2939,1.2969,1.2981,1.3013,1.303,1.3054,1.3089,1.3096,1.3116,1.3133,1.3132,1.3131,1.3134,1.3133,1.3109,1.3145,1.3145,1.3145,1.3145,0,1.2706,1.2719,1.2772,1.2784,1.2801,1.284,1.2856,1.2881,1.2912,1.2931,1.2965,1.2981,1.3027,1.3049,1.3076,1.3098,1.3106,1.3121,1.3128,1.3117,1.3115,1.3127,1.3128,1.3144,1.3144,1.3144,1.3144,0,1.2669,1.2705,1.273,1.2777,1.2789,1.2799,1.284,1.2854,1.2882,1.2905,1.2913,1.2956,1.2984,1.3022,1.3062,1.308,1.3098,1.311,1.3086,1.309,1.3086,1.3085,1.3068,1.3068,1.3104,1.3103,1.3103,0,1.2656,1.2668,1.2716,1.2731,1.2752,1.2775,1.2793,1.2832,1.285,1.2891,1.29,1.2931,1.2958,1.3001,1.3037,1.3068,1.308,1.3072,1.3084,1.3073,1.3079,1.3077,1.3078,1.3068,1.3067,1.3067,1.3066,0,1.2629,1.2646,1.2672,1.2703,1.2724,1.2751,1.2779,1.279,1.2835,1.2853,1.2882,1.2903,1.2944,1.2974,1.3009,1.3033,1.3057,1.3062,1.3064,1.3052,1.3038,1.3045,1.3076,1.3062,1.3063,1.3063,1.3063,1.3063,1.2604,1.2616,1.2651,1.2678,1.2704,1.273,1.2745,1.2775,1.28,1.2835,1.2857,1.2885,1.2921,1.2971,1.2994,1.3017,1.3026,1.3028,1.3028,1.3028,1.3024,1.3035,1.3024,1.3024,1.3024,1.3024,1.3024,0,1.2578,1.2603,1.2627,1.2666,1.2687,1.2709,1.2741,1.2758,1.2782,1.2813,1.2838,1.2872,1.2901,1.2939,1.2972,1.2983,1.2995,1.299,1.2989,1.2994,1.3014,1.301,1.298,1.298,1.298,1.298,1.298,1.298,1.2567,1.2588,1.2609,1.2644,1.2669,1.2696,1.2713,1.2737,1.2762,1.2798,1.2823,1.2847,1.2881,1.2917,1.2945,1.2955,1.2965,1.2957,1.2971,1.2989,1.2993,1.2996,1.2992,1.2959,1.2959,1.2948,1.2948,1.2948]},{"header":{"parameterUnit":"m.s-1","parameterCategory":1,"la1":30.2991,"la2":30.254,"lo1":-89.0895,"lo2":-89.0444,"dy":0.0017,"dx":0.0017,"nx":28,"ny":28,"refTime":"2024-11-24T03:00:00:Z","depth":0,"parameterNumber":3,"parameterNumberName":"V-component_of_WINDS"},"data":[0,0,0,0,0,0,0,0,0,0,0,0,0,0,0,0,0,0,0,0,0,0,0,0,0,0,0,0,0,0,0,0,0,0,0,0,0,0,0,0,0,0,0,0,0,0,0,0,0,0,0,0,0,0,0,0,0,0,0.384,0.384,0,0.38,0.3799,0.3799,0.3796,0.3797,0.3797,0.3798,0.3754,0.3753,0.3751,0,0,0,0,0,0,0,0,0,0,0,0,0,0.3913,0.3911,0.384,0.384,0.3839,0.38,0.3799,0.3799,0.3796,0.3797,0.3798,0.3798,0.3755,0.3753,0.3751,0,0,0,0,0,0,0,0,0,0,0,0,0,0.3878,0.3911,0.384,0.3833,0.3832,0.38,0.3799,0.3798,0.3796,0.3797,0.3798,0.3798,0.3756,0.3753,0.3751,0.3722,0,0,0.3744,0.3743,0,0,0,0,0,0,0,0,0.388,0.3875,0.3835,0.3834,0.3833,0.3804,0.3809,0.3773,0.3796,0.381,0.3798,0.3799,0.377,0.3767,0.3757,0.372,0.3718,0.3743,0.3742,0.3741,0.374,0,0,0,0,0,0,0,0.3882,0.3877,0.3824,0.3834,0.3833,0.3831,0.3827,0.3802,0.3786,0.3809,0.3809,0.3804,0.377,0.376,0.3756,0.3717,0.3743,0.3741,0.374,0.3739,0.3652,0.3651,0,0,0,0,0,0,0.3886,0.3879,0.3825,0.3823,0.3858,0.3829,0.3825,0.3812,0.3787,0.3784,0.3803,0.3804,0.3764,0.3759,0.3755,0.3718,0.3741,0.3739,0.3737,0.3653,0.3652,0.3651,0,0,0,0,0,0,0.3888,0.3881,0.3827,0.3851,0.3844,0.3827,0.3813,0.3811,0.3801,0.3783,0.378,0.3796,0.3764,0.3758,0.373,0.3716,0.3738,0.3735,0.3654,0.3652,0.3651,0.3644,0,0,0,0,0,0,0.389,0.3882,0.3872,0.385,0.3842,0.3803,0.3813,0.381,0.3797,0.3798,0.3775,0.3772,0.3764,0.3733,0.3727,0.3713,0.3734,0.3655,0.3653,0.3652,0.3645,0.3642,0.364,0,0,0,0,0,0.3892,0.3871,0.3871,0.3865,0.3829,0.3803,0.3798,0.379,0.3796,0.3785,0.3773,0.3773,0.3719,0.3731,0.3724,0.3709,0.3656,0.3654,0.3652,0.3646,0.3643,0.364,0,0,0,0,0,0,0.3891,0.3868,0.3868,0.3839,0.3823,0.3802,0.3788,0.3787,0.3767,0.3769,0.3759,0.3753,0.3725,0.3714,0.3727,0.3678,0.3688,0.3684,0.3686,0.3683,0.368,0.3683,0.3732,0,0,0,0,0,0.3887,0.3868,0.3849,0.3826,0.3818,0.3804,0.3792,0.3787,0.377,0.3763,0.3748,0.3731,0.3709,0.3696,0.3675,0.3644,0.3638,0.363,0.3628,0.3626,0.3622,0.3603,0.3599,0.3644,0.3644,0.3644,0,0,0.3879,0.3864,0.3853,0.3825,0.3812,0.3791,0.3798,0.3777,0.3761,0.3759,0.3731,0.372,0.3699,0.3669,0.3655,0.3659,0.3608,0.3623,0.3622,0.3619,0.36,0.3596,0.3592,0.3643,0.3643,0.3643,0,0,0.3854,0.3842,0.382,0.3806,0.3786,0.3777,0.3772,0.3751,0.3744,0.3716,0.3713,0.3694,0.3659,0.3643,0.3631,0.3599,0.3597,0.3593,0.3579,0.356,0.3556,0.3553,0.354,0.3535,0.359,0.359,0.359,0,0.3846,0.3816,0.3809,0.3787,0.3774,0.3771,0.3748,0.3735,0.3709,0.37,0.3705,0.3659,0.3646,0.361,0.3603,0.3593,0.3586,0.3595,0.3558,0.3554,0.3551,0.3538,0.3533,0.3589,0.3589,0.3589,0.3589,0,0.3807,0.3786,0.3771,0.3745,0.3731,0.3709,0.3697,0.3683,0.3679,0.3669,0.3639,0.3622,0.3598,0.3589,0.3586,0.3553,0.3556,0.356,0.3569,0.3546,0.3534,0.3529,0.3588,0.3588,0.3589,0.3589,0,0,0.3779,0.375,0.3744,0.3732,0.3709,0.3692,0.3669,0.3645,0.3633,0.3615,0.3594,0.3563,0.3566,0.3552,0.3546,0.353,0.3503,0.3535,0.3535,0.3528,0.3464,0.3461,0.3455,0.3503,0.3502,0.3501,0.3466,0,0.375,0.3709,0.3702,0.3666,0.3645,0.3642,0.3622,0.3605,0.3595,0.3575,0.3564,0.3542,0.3548,0.3539,0.3523,0.351,0.349,0.3513,0.3482,0.3481,0.3485,0.3449,0.3446,0.3413,0.3461,0.346,0.346,0,0.3711,0.3691,0.3654,0.3632,0.3623,0.3605,0.3582,0.3564,0.3544,0.3538,0.3521,0.3517,0.3492,0.3503,0.3467,0.3482,0.3469,0.3461,0.3459,0.3455,0.3468,0.3442,0.3402,0.3397,0.3452,0.3453,0.3453,0,0.3692,0.3657,0.3629,0.3619,0.3594,0.3581,0.3569,0.3551,0.3536,0.3516,0.3506,0.3483,0.347,0.3452,0.3441,0.345,0.3404,0.3416,0.3397,0.3397,0.3386,0.3387,0.3342,0.3381,0.3381,0.3381,0.3381,0,0.3659,0.3636,0.362,0.3603,0.3576,0.3567,0.354,0.3529,0.3512,0.3491,0.3488,0.3469,0.3456,0.3435,0.3426,0.3396,0.3391,0.3384,0.3382,0.3383,0.3384,0.3373,0.3375,0.338,0.338,0.338,0.338,0,0.3633,0.3622,0.3591,0.357,0.3564,0.3545,0.3526,0.3508,0.3498,0.3472,0.3466,0.3449,0.3424,0.3412,0.338,0.3374,0.334,0.334,0.3346,0.3345,0.3327,0.3328,0.3272,0.3264,0.331,0.3309,0.3309,0,0.3612,0.3594,0.357,0.3557,0.3545,0.3523,0.3509,0.3499,0.3483,0.3459,0.3444,0.3418,0.3397,0.3356,0.3341,0.3316,0.3315,0.3297,0.3311,0.3312,0.3312,0.3313,0.331,0.3294,0.3293,0.3293,0.3293,0,0.3576,0.3571,0.355,0.3527,0.351,0.3491,0.3473,0.3461,0.3448,0.3431,0.3405,0.3389,0.3356,0.333,0.3304,0.3292,0.3289,0.3289,0.3283,0.3283,0.3287,0.3283,0.3338,0.329,0.329,0.329,0.329,0.3291,0.355,0.3533,0.3514,0.349,0.3475,0.3458,0.344,0.3427,0.3406,0.3379,0.3374,0.3346,0.3325,0.329,0.3277,0.3254,0.3257,0.3249,0.3247,0.3245,0.3243,0.3292,0.3249,0.3249,0.3249,0.3249,0.3249,0,0.3512,0.3499,0.3478,0.3452,0.3433,0.3434,0.3413,0.3397,0.3372,0.3353,0.3332,0.3302,0.3276,0.3259,0.3233,0.3217,0.3215,0.3211,0.3211,0.3207,0.3242,0.3249,0.3212,0.3212,0.3212,0.3212,0.3212,0.3212,0.349,0.346,0.3453,0.3416,0.3403,0.3375,0.3363,0.3346,0.3331,0.3297,0.3276,0.3265,0.3246,0.3218,0.3194,0.319,0.318,0.3174,0.3169,0.3201,0.3205,0.3209,0.3215,0.3173,0.3173,0.3137,0.3136,0.3136]}]]